Voltar ao catálogo

CZ-2C R/B

AtivoSSO
NORAD 28480·ROCKET BODY·🇨🇳 China

Lançado Nov 18, 2004 de Xichang Satellite Launch Center

Loading…

Próximas Passagens (próximas 24 horas)

TLE

AtualizadoSource: Space-Track

Época: Sep 14, 2026, 17:29 UTC

1 28480U 04046B   26257.72908165  .00000108  00000-0  55630-4 0  9998
2 28480  98.1837 160.8660 0138519 316.1704  42.8551 14.27051621135469

Acompanhe CZ-2C R/B em tempo real com AllMySat

Download on the App Store